User: anonymous   Login
Location: *
(51.1248°S, 108.4023°W)
Time: 22:49:15
(UTC+00:00)
Language:

Helios 1A Rocket - Orbit

View from above orbital plane
View from above orbital plane
View from above satellite
View from above satellite

Ground track
Ground track

The orbit data is extracted from the following two-line orbital elements,

1 23608U 95033D   21269.57192193  .00000287  00000-0  30018-4 0  9999
2 23608  98.2833 316.2223 0016974 137.2723 222.9820 14.97838327421201
Epoch (UTC): 26 September 2021 13:43:34
Eccentricity: 0.0016974
inclination: 98.2833°
perigee height: 562 km
apogee height: 585 km
right ascension of ascending node: 316.2223°
argument of perigee: 137.2723°
revolutions per day: 14.97838327
mean anomaly at epoch: 222.9820°
orbit number at epoch: 42120

The dashed part of the orbit path shows where the satellite is in the earth's shadow,  

DLR